Location: Gradaro
(45.0833°N, 10.8833°E)
Time: 21:57:48
(UTC+00:00)

Meteor 1-4 Rocket - Pass Details

Date: 29 November 2020
Orbit: 449 x 500 km, 81.2° (Epoch: 21 January)

Event Time Altitude Azimuth Distance (km) Brightness Sun altitude
Exits shadow 04:48:11 17° 212° (SSW) 1,200 4.3 -17.9°
Drops below altitude 10° 04:49:14 10° 202° (SSW) 1,576 5.1 -17.7°
Sets 04:51:25 0° 192° (SSW) 2,446 6.2 -17.4°
